User: anonymous   Login
Location: Wingville
(42.9917°N, 90.4915°W)
Time: 00:32:03
(UTC+00:00)
Language:

CAS-6 - Orbit

View from above orbital plane
View from above orbital plane
View from above satellite
View from above satellite

Ground track
Ground track

The orbit data is extracted from the following two-line orbital elements,

1 44881U 19093C   22180.53133237  .00000464  00000-0  65433-4 0  9996
2 44881  97.8929 259.5667 0015819 142.4608 217.7715 14.81741696136568
Epoch (UTC): 29 June 2022 12:45:07
Eccentricity: 0.0015819
inclination: 97.8929°
perigee height: 613 km
apogee height: 635 km
right ascension of ascending node: 259.5667°
argument of perigee: 142.4608°
revolutions per day: 14.81741696
mean anomaly at epoch: 217.7715°
orbit number at epoch: 13656

The dashed part of the orbit path shows where the satellite is in the earth's shadow,  

DLR